UAL1743 KIAH-KLAX

Flight info

Callsign UAL1743
Flight time 3h 20m
Altitude 30000
Route PITZZ5 CRGER EWM J4 SSO/N0475F320 J4 WLVRN ESTWD HLYWD1
Aircraft B739/M-SDE2E3FGHIRWXY/LB1

Departure

Time 2026-05-03 21:28
Airport George Bush Intercontinental Airport (KIAH)

Arrival

Time 2026-05-04 00:48
Airport Los Angeles International Airport (KLAX)
Time Latitude Longitude Altitude Speed Heading
2026-05-03 20:15 29.98532 -95.33650 106 ft 0 kts
2026-05-03 21:12 29.98517 -95.33651 105 ft 4 kts 10°
2026-05-03 21:12 29.98492 -95.33661 106 ft 4 kts 33°
2026-05-03 21:12 29.98471 -95.33680 105 ft 4 kts 49°
2026-05-03 21:13 29.98454 -95.33705 104 ft 4 kts 46°
2026-05-03 21:13 29.98435 -95.33718 104 ft 4 kts 360°
2026-05-03 21:13 29.98409 -95.33715 104 ft 4 kts 331°
2026-05-03 21:13 29.98396 -95.33697 104 ft 4 kts 262°
2026-05-03 21:14 29.98407 -95.33673 105 ft 4 kts 212°
2026-05-03 21:14 29.98431 -95.33665 105 ft 4 kts 180°
2026-05-03 21:14 29.98444 -95.33665 105 ft 0 kts 180°
2026-05-03 21:17 29.98433 -95.33665 105 ft 4 kts 180°
2026-05-03 21:17 29.98411 -95.33665 105 ft 5 kts 180°
2026-05-03 21:17 29.98362 -95.33666 106 ft 5 kts 180°
2026-05-03 21:17 29.98328 -95.33677 106 ft 5 kts 219°
2026-05-03 21:18 29.98318 -95.33715 106 ft 5 kts 264°
2026-05-03 21:18 29.98317 -95.33760 106 ft 7 kts 270°
2026-05-03 21:18 29.98317 -95.33828 106 ft 11 kts 270°
2026-05-03 21:18 29.98317 -95.33928 106 ft 13 kts 270°
2026-05-03 21:19 29.98340 -95.34028 106 ft 13 kts 303°
2026-05-03 21:19 29.98375 -95.34122 106 ft 13 kts 277°
2026-05-03 21:19 29.98376 -95.34223 106 ft 12 kts 271°
2026-05-03 21:19 29.98377 -95.34321 106 ft 12 kts 270°
2026-05-03 21:20 29.98376 -95.34385 106 ft 12 kts 268°
2026-05-03 21:20 29.98344 -95.34471 106 ft 12 kts 239°
2026-05-03 21:20 29.98324 -95.34560 106 ft 11 kts 269°
2026-05-03 21:20 29.98325 -95.34650 106 ft 11 kts 270°
2026-05-03 21:21 29.98324 -95.34737 106 ft 11 kts 270°
2026-05-03 21:21 29.98324 -95.34823 106 ft 10 kts 270°
2026-05-03 21:21 29.98324 -95.34905 106 ft 10 kts 270°
2026-05-03 21:21 29.98324 -95.34985 106 ft 10 kts 269°
2026-05-03 21:22 29.98324 -95.35063 106 ft 10 kts 270°
2026-05-03 21:22 29.98325 -95.35140 106 ft 9 kts 279°
2026-05-03 21:22 29.98368 -95.35192 106 ft 9 kts 330°
2026-05-03 21:22 29.98425 -95.35227 105 ft 9 kts 332°
2026-05-03 21:23 29.98484 -95.35264 106 ft 10 kts 332°
2026-05-03 21:23 29.98553 -95.35307 106 ft 12 kts 332°
2026-05-03 21:23 29.98624 -95.35349 105 ft 11 kts 333°
2026-05-03 21:23 29.98692 -95.35391 106 ft 11 kts 332°
2026-05-03 21:24 29.98759 -95.35433 105 ft 11 kts 332°
2026-05-03 21:24 29.98823 -95.35473 106 ft 10 kts 332°
2026-05-03 21:24 29.98880 -95.35519 106 ft 10 kts 299°
2026-05-03 21:24 29.98867 -95.35593 105 ft 10 kts 242°
2026-05-03 21:25 29.98840 -95.35651 105 ft 3 kts 242°
2026-05-03 21:25 29.98831 -95.35672 106 ft 3 kts 242°
2026-05-03 21:25 29.98825 -95.35683 105 ft 0 kts 240°
2026-05-03 21:26 29.98823 -95.35688 105 ft 4 kts 240°
2026-05-03 21:26 29.98803 -95.35729 107 ft 8 kts 240°
2026-05-03 21:27 29.98747 -95.35760 108 ft 11 kts 163°
2026-05-03 21:27 29.98606 -95.35675 107 ft 52 kts 153°
2026-05-03 21:27 29.98059 -95.35342 107 ft 123 kts 151°
2026-05-03 21:27 29.97123 -95.34766 109 ft 180 kts 152°
2026-05-03 21:28 29.95954 -95.34105 731 ft 188 kts 155°
2026-05-03 21:28 29.94708 -95.33716 1646 ft 185 kts 186°
2026-05-03 21:28 29.93526 -95.34307 2371 ft 195 kts 217°
2026-05-03 21:28 29.92555 -95.35404 3042 ft 196 kts 230°
2026-05-03 21:29 29.91787 -95.36768 3399 ft 213 kts 240°
2026-05-03 21:29 29.91051 -95.38343 3579 ft 233 kts 240°
2026-05-03 21:29 29.90211 -95.40009 3948 ft 245 kts 237°
2026-05-03 21:29 29.89261 -95.41718 4257 ft 262 kts 236°
2026-05-03 21:30 29.88252 -95.43507 4864 ft 269 kts 238°
2026-05-03 21:30 29.87308 -95.45375 5645 ft 270 kts 239°
2026-05-03 21:30 29.86374 -95.47265 6373 ft 273 kts 239°
2026-05-03 21:30 29.85424 -95.49179 7062 ft 276 kts 240°
2026-05-03 21:31 29.84484 -95.51113 7762 ft 277 kts 242°
2026-05-03 21:31 29.83544 -95.53061 8459 ft 279 kts 242°
2026-05-03 21:31 29.82858 -95.55139 9098 ft 280 kts 265°
2026-05-03 21:31 29.83025 -95.57343 9824 ft 277 kts 289°
2026-05-03 21:32 29.83833 -95.59357 10404 ft 282 kts 299°
2026-05-03 21:32 29.84834 -95.61393 10549 ft 303 kts 300°
2026-05-03 21:32 29.85935 -95.63562 10701 ft 323 kts 301°
2026-05-03 21:32 29.87103 -95.65859 10842 ft 342 kts 300°
2026-05-03 21:33 29.88327 -95.68285 10978 ft 359 kts 300°
2026-05-03 21:33 29.89605 -95.70839 11107 ft 375 kts 300°
2026-05-03 21:33 29.90918 -95.73481 11406 ft 384 kts 300°
2026-05-03 21:33 29.92246 -95.76164 11860 ft 387 kts 300°
2026-05-03 21:34 29.93578 -95.78865 12371 ft 389 kts 300°
2026-05-03 21:34 29.94918 -95.81584 12851 ft 392 kts 300°
2026-05-03 21:34 29.96255 -95.84300 13302 ft 395 kts 300°
2026-05-03 21:34 29.97617 -95.87070 13758 ft 398 kts 300°
2026-05-03 21:35 29.98987 -95.89858 14183 ft 401 kts 300°
2026-05-03 21:35 30.00365 -95.92663 14615 ft 402 kts 299°
2026-05-03 21:35 30.01740 -95.95466 15100 ft 402 kts 299°
2026-05-03 21:35 30.03116 -95.98270 15535 ft 402 kts 299°
2026-05-03 21:36 30.04498 -96.01091 15940 ft 403 kts 299°
2026-05-03 21:36 30.05879 -96.03909 16322 ft 405 kts 299°
2026-05-03 21:36 30.07141 -96.06822 16687 ft 406 kts 289°
2026-05-03 21:36 30.07737 -96.10012 17068 ft 408 kts 279°
2026-05-03 21:37 30.08173 -96.13252 17434 ft 409 kts 280°
2026-05-03 21:37 30.08643 -96.16501 17781 ft 411 kts 281°
2026-05-03 21:37 30.09139 -96.19750 18129 ft 412 kts 281°
2026-05-03 21:37 30.09644 -96.23011 18444 ft 413 kts 281°
2026-05-03 21:38 30.10151 -96.26277 18745 ft 414 kts 281°
2026-05-03 21:38 30.10656 -96.29554 19049 ft 414 kts 281°
2026-05-03 21:38 30.11160 -96.32832 19353 ft 415 kts 281°
2026-05-03 21:38 30.11664 -96.36116 19644 ft 416 kts 281°
2026-05-03 21:39 30.12167 -96.39403 19933 ft 416 kts 281°
2026-05-03 21:39 30.12670 -96.42700 20226 ft 417 kts 281°
2026-05-03 21:39 30.13174 -96.46005 20522 ft 418 kts 281°
2026-05-03 21:39 30.13677 -96.49309 20812 ft 418 kts 281°
2026-05-03 21:40 30.14180 -96.52619 21075 ft 419 kts 281°
2026-05-03 21:40 30.14684 -96.55940 21343 ft 420 kts 281°
2026-05-03 21:40 30.15187 -96.59259 21634 ft 420 kts 281°
2026-05-03 21:40 30.15691 -96.62590 21907 ft 421 kts 281°
2026-05-03 21:41 30.16194 -96.65928 22161 ft 422 kts 281°
2026-05-03 21:41 30.16692 -96.69230 22410 ft 423 kts 281°
2026-05-03 21:41 30.17195 -96.72578 22676 ft 423 kts 281°
2026-05-03 21:41 30.17706 -96.75980 22912 ft 424 kts 281°
2026-05-03 21:42 30.18203 -96.79297 23154 ft 425 kts 281°
2026-05-03 21:42 30.18707 -96.82664 23356 ft 426 kts 281°
2026-05-03 21:42 30.19212 -96.86046 23571 ft 427 kts 281°
2026-05-03 21:42 30.19716 -96.89428 23782 ft 428 kts 281°
2026-05-03 21:43 30.20221 -96.92825 23959 ft 428 kts 281°
2026-05-03 21:43 30.20725 -96.96214 24139 ft 428 kts 281°
2026-05-03 21:43 30.21228 -96.99612 24311 ft 429 kts 281°
2026-05-03 21:43 30.21731 -97.03008 24487 ft 429 kts 281°
2026-05-03 21:44 30.22234 -97.06408 24649 ft 429 kts 281°
2026-05-03 21:44 30.22736 -97.09806 24807 ft 429 kts 281°
2026-05-03 21:44 30.23243 -97.13206 24954 ft 429 kts 281°
2026-05-03 21:44 30.23752 -97.16616 25108 ft 430 kts 281°
2026-05-03 21:45 30.24260 -97.20018 25257 ft 430 kts 281°
2026-05-03 21:45 30.24767 -97.23425 25408 ft 430 kts 281°
2026-05-03 21:45 30.25273 -97.26835 25549 ft 431 kts 281°
2026-05-03 21:45 30.25779 -97.30250 25693 ft 431 kts 281°
2026-05-03 21:46 30.26283 -97.33660 25827 ft 431 kts 281°
2026-05-03 21:46 30.26788 -97.37081 25962 ft 431 kts 280°
2026-05-03 21:46 30.27289 -97.40490 26113 ft 430 kts 280°
2026-05-03 21:46 30.27788 -97.43887 26306 ft 428 kts 280°
2026-05-03 21:47 30.28287 -97.47286 26537 ft 426 kts 280°
2026-05-03 21:47 30.28780 -97.50658 26762 ft 424 kts 280°
2026-05-03 21:47 30.29271 -97.54018 26974 ft 423 kts 280°
2026-05-03 21:47 30.29759 -97.57367 27198 ft 422 kts 280°
2026-05-03 21:48 30.30245 -97.60705 27434 ft 420 kts 280°
2026-05-03 21:48 30.30722 -97.63988 27688 ft 418 kts 280°
2026-05-03 21:48 30.31203 -97.67297 27959 ft 416 kts 280°
2026-05-03 21:48 30.31678 -97.70582 28217 ft 414 kts 280°
2026-05-03 21:49 30.32180 -97.73850 28498 ft 412 kts 282°
2026-05-03 21:49 30.32807 -97.77069 28776 ft 409 kts 284°
2026-05-03 21:49 30.33497 -97.80265 29080 ft 407 kts 284°
2026-05-03 21:49 30.34197 -97.83428 29422 ft 404 kts 284°
2026-05-03 21:50 30.34889 -97.86568 29754 ft 401 kts 284°
2026-05-03 21:50 30.35568 -97.89698 30063 ft 399 kts 284°
2026-05-03 21:50 30.36900 -97.95952 30179 ft 400 kts 284°
2026-05-03 21:51 30.38212 -98.02194 30173 ft 398 kts 284°
2026-05-03 21:51 30.39513 -98.08407 30175 ft 396 kts 284°
2026-05-03 21:52 30.40806 -98.14598 30165 ft 396 kts 284°
2026-05-03 21:52 30.42100 -98.20806 30149 ft 396 kts 284°
2026-05-03 21:53 30.43388 -98.27002 30144 ft 396 kts 284°
2026-05-03 21:53 30.44677 -98.33218 30147 ft 397 kts 284°
2026-05-03 21:54 30.46015 -98.39428 30149 ft 397 kts 284°
2026-05-03 21:54 30.47408 -98.45629 30148 ft 398 kts 285°
2026-05-03 21:55 30.48800 -98.51836 30147 ft 398 kts 284°
2026-05-03 21:55 30.50186 -98.58063 30140 ft 399 kts 284°
2026-05-03 21:56 30.51554 -98.64244 30134 ft 399 kts 284°
2026-05-03 21:56 30.52929 -98.70476 30126 ft 399 kts 284°
2026-05-03 21:57 30.54301 -98.76711 30135 ft 399 kts 284°
2026-05-03 21:57 30.55670 -98.82948 30129 ft 399 kts 284°
2026-05-03 21:58 30.57036 -98.89182 30127 ft 399 kts 284°
2026-05-03 21:58 30.58398 -98.95418 30115 ft 399 kts 285°
2026-05-03 21:59 30.59756 -99.01652 30111 ft 398 kts 285°
2026-05-03 21:59 30.61111 -99.07884 30106 ft 398 kts 285°
2026-05-03 22:00 30.62462 -99.14114 30104 ft 398 kts 285°
2026-05-03 22:00 30.63808 -99.20339 30101 ft 397 kts 285°
2026-05-03 22:01 30.65152 -99.26566 30101 ft 397 kts 285°
2026-05-03 22:01 30.66490 -99.32781 30097 ft 397 kts 285°
2026-05-03 22:02 30.67826 -99.39005 30089 ft 397 kts 285°
2026-05-03 22:02 30.69160 -99.45235 30096 ft 398 kts 285°
2026-05-03 22:03 30.70492 -99.51470 30098 ft 398 kts 285°
2026-05-03 22:03 30.71822 -99.57710 30098 ft 398 kts 285°
2026-05-03 22:04 30.73151 -99.63961 30100 ft 398 kts 285°
2026-05-03 22:04 30.74478 -99.70216 30093 ft 398 kts 285°
2026-05-03 22:05 30.75800 -99.76473 30098 ft 399 kts 285°
2026-05-03 22:05 30.77113 -99.82699 30096 ft 399 kts 285°
2026-05-03 22:06 30.78434 -99.88977 30090 ft 400 kts 285°
2026-05-03 22:06 30.79754 -99.95266 30081 ft 400 kts 284°
2026-05-03 22:07 30.81070 -100.01555 30084 ft 401 kts 284°
2026-05-03 22:07 30.82386 -100.07855 30078 ft 401 kts 284°
2026-05-03 22:08 30.83698 -100.14161 30085 ft 401 kts 284°
2026-05-03 22:08 30.84798 -100.19455 30082 ft 402 kts 284°
2026-05-03 22:09 30.86100 -100.25737 30089 ft 403 kts 284°
2026-05-03 22:10 30.88067 -100.35260 30089 ft 404 kts 284°
2026-05-03 22:10 30.89377 -100.41619 30093 ft 405 kts 284°
2026-05-03 22:11 30.90688 -100.48003 30093 ft 405 kts 284°
2026-05-03 22:11 30.91996 -100.54393 30094 ft 406 kts 284°
2026-05-03 22:12 30.93303 -100.60794 30085 ft 407 kts 284°
2026-05-03 22:12 30.94609 -100.67204 30091 ft 407 kts 284°
2026-05-03 22:13 30.95915 -100.73634 30089 ft 408 kts 284°
2026-05-03 22:13 30.97218 -100.80062 30095 ft 408 kts 284°
2026-05-03 22:14 30.98511 -100.86461 30087 ft 409 kts 284°
2026-05-03 22:14 30.99812 -100.92919 30092 ft 409 kts 284°
2026-05-03 22:15 31.01109 -100.99377 30093 ft 409 kts 284°
2026-05-03 22:15 31.02405 -101.05843 30100 ft 410 kts 284°
2026-05-03 22:16 31.03697 -101.12307 30087 ft 410 kts 284°
2026-05-03 22:16 31.04986 -101.18774 30080 ft 409 kts 284°
2026-05-03 22:17 31.06272 -101.25246 30080 ft 409 kts 284°
2026-05-03 22:17 31.07554 -101.31714 30076 ft 409 kts 284°
2026-05-03 22:18 31.08833 -101.38189 30069 ft 409 kts 283°
2026-05-03 22:18 31.10106 -101.44647 30069 ft 409 kts 283°
2026-05-03 22:19 31.11368 -101.51067 30064 ft 409 kts 283°
2026-05-03 22:19 31.12634 -101.57530 30064 ft 408 kts 283°
2026-05-03 22:20 31.13897 -101.63992 30053 ft 408 kts 283°
2026-05-03 22:20 31.15155 -101.70449 30061 ft 408 kts 283°
2026-05-03 22:21 31.16413 -101.76920 30048 ft 408 kts 283°
2026-05-03 22:21 31.17665 -101.83384 30051 ft 408 kts 283°
2026-05-03 22:22 31.18913 -101.89844 30047 ft 408 kts 283°
2026-05-03 22:22 31.20161 -101.96319 30041 ft 408 kts 283°
2026-05-03 22:23 31.21404 -102.02788 30030 ft 408 kts 283°
2026-05-03 22:23 31.22643 -102.09257 30037 ft 408 kts 283°
2026-05-03 22:24 31.23878 -102.15721 30022 ft 408 kts 283°
2026-05-03 22:24 31.25110 -102.22188 30031 ft 408 kts 282°
2026-05-03 22:25 31.26339 -102.28663 30021 ft 408 kts 282°
2026-05-03 22:25 31.27568 -102.35151 30017 ft 409 kts 282°
2026-05-03 22:26 31.28792 -102.41638 30013 ft 409 kts 282°
2026-05-03 22:26 31.30016 -102.48140 30003 ft 409 kts 282°
2026-05-03 22:27 31.31236 -102.54639 30007 ft 409 kts 282°
2026-05-03 22:27 31.32453 -102.61139 30002 ft 409 kts 282°
2026-05-03 22:28 31.33668 -102.67653 29997 ft 410 kts 282°
2026-05-03 22:28 31.34881 -102.74171 30000 ft 410 kts 282°
2026-05-03 22:29 31.36091 -102.80693 29995 ft 411 kts 282°
2026-05-03 22:29 31.37299 -102.87225 29997 ft 411 kts 282°
2026-05-03 22:30 31.38505 -102.93765 29989 ft 411 kts 281°
2026-05-03 22:30 31.39709 -103.00314 29989 ft 411 kts 281°
2026-05-03 22:31 31.40909 -103.06861 29986 ft 412 kts 281°
2026-05-03 22:31 31.42106 -103.13416 29996 ft 412 kts 281°
2026-05-03 22:32 31.43301 -103.19975 30010 ft 412 kts 281°
2026-05-03 22:32 31.44493 -103.26537 30028 ft 412 kts 281°
2026-05-03 22:33 31.45683 -103.33113 30040 ft 413 kts 281°
2026-05-03 22:33 31.46871 -103.39692 30052 ft 413 kts 281°
2026-05-03 22:34 31.48057 -103.46283 30053 ft 413 kts 281°
2026-05-03 22:34 31.49239 -103.52870 30055 ft 413 kts 281°
2026-05-03 22:35 31.50417 -103.59458 30040 ft 413 kts 281°
2026-05-03 22:35 31.51589 -103.66035 30032 ft 413 kts 281°
2026-05-03 22:36 31.52760 -103.72621 30014 ft 412 kts 281°
2026-05-03 22:36 31.53925 -103.79201 30010 ft 412 kts 281°
2026-05-03 22:37 31.55087 -103.85778 29986 ft 412 kts 281°
2026-05-03 22:37 31.56245 -103.92357 29992 ft 412 kts 281°
2026-05-03 22:38 31.57393 -103.98899 29988 ft 412 kts 281°
2026-05-03 22:38 31.58553 -104.05529 29991 ft 412 kts 281°
2026-05-03 22:39 31.59694 -104.12074 29995 ft 412 kts 281°
2026-05-03 22:39 31.60840 -104.18669 29993 ft 413 kts 281°
2026-05-03 22:40 31.61984 -104.25266 29992 ft 413 kts 281°
2026-05-03 22:40 31.63124 -104.31867 29987 ft 413 kts 281°
2026-05-03 22:41 31.64261 -104.38472 29984 ft 413 kts 281°
2026-05-03 22:41 31.65396 -104.45087 29986 ft 413 kts 281°
2026-05-03 22:42 31.66527 -104.51699 29988 ft 414 kts 281°
2026-05-03 22:42 31.67656 -104.58324 29985 ft 414 kts 281°
2026-05-03 22:43 31.68784 -104.64960 29979 ft 414 kts 281°
2026-05-03 22:43 31.69907 -104.71596 29979 ft 414 kts 281°
2026-05-03 22:44 31.71028 -104.78233 29973 ft 414 kts 281°
2026-05-03 22:44 31.72145 -104.84870 29973 ft 414 kts 281°
2026-05-03 22:45 31.73256 -104.91500 29969 ft 414 kts 281°
2026-05-03 22:45 31.73811 -104.94816 29767 ft 412 kts 280°
2026-05-03 22:45 31.74360 -104.98101 29867 ft 409 kts 280°
2026-05-03 22:46 31.75446 -105.04620 29946 ft 405 kts 279°
2026-05-03 22:46 31.76522 -105.11103 29960 ft 404 kts 279°
2026-05-03 22:47 31.77594 -105.17583 29957 ft 404 kts 279°
2026-05-03 22:47 31.78662 -105.24061 29954 ft 404 kts 279°
2026-05-03 22:48 31.79729 -105.30552 29957 ft 405 kts 279°
2026-05-03 22:48 31.80795 -105.37058 29955 ft 406 kts 279°
2026-05-03 22:49 31.81852 -105.43530 29945 ft 406 kts 279°
2026-05-03 22:49 31.82913 -105.50046 29950 ft 406 kts 279°
2026-05-03 22:50 31.83973 -105.56581 29950 ft 407 kts 279°
2026-05-03 22:50 31.85030 -105.63116 29948 ft 407 kts 279°
2026-05-03 22:51 31.86084 -105.69662 29951 ft 407 kts 279°
2026-05-03 22:51 31.87136 -105.76214 29949 ft 408 kts 279°
2026-05-03 22:52 31.88184 -105.82762 29957 ft 407 kts 279°
2026-05-03 22:52 31.89228 -105.89306 29958 ft 408 kts 279°
2026-05-03 22:53 31.90265 -105.95834 29963 ft 408 kts 279°
2026-05-03 22:53 31.91313 -106.02448 29980 ft 409 kts 279°
2026-05-03 22:54 31.92344 -106.08985 30010 ft 409 kts 279°
2026-05-03 22:54 31.93380 -106.15567 30025 ft 410 kts 279°
2026-05-03 22:55 31.94415 -106.22171 30039 ft 410 kts 279°
2026-05-03 22:55 31.95434 -106.28771 30061 ft 410 kts 278°
2026-05-03 22:56 31.96244 -106.35423 30072 ft 412 kts 277°
2026-05-03 22:56 31.96986 -106.42107 30053 ft 412 kts 277°
2026-05-03 22:57 31.97635 -106.47706 30039 ft 411 kts 279°
2026-05-03 22:57 31.99289 -106.54115 30035 ft 414 kts 287°
2026-05-03 22:58 32.01173 -106.60522 30040 ft 414 kts 287°
2026-05-03 22:58 32.03027 -106.66938 30046 ft 414 kts 286°
2026-05-03 22:59 32.04869 -106.73358 30034 ft 413 kts 286°
2026-05-03 22:59 32.06706 -106.79779 30017 ft 413 kts 286°
2026-05-03 23:00 32.08539 -106.86200 30026 ft 413 kts 286°
2026-05-03 23:00 32.10368 -106.92616 30039 ft 413 kts 286°
2026-05-03 23:01 32.12192 -106.99033 30046 ft 412 kts 286°
2026-05-03 23:01 32.14013 -107.05450 30039 ft 412 kts 286°
2026-05-03 23:02 32.15828 -107.11859 30023 ft 412 kts 286°
2026-05-03 23:02 32.17641 -107.18277 30002 ft 412 kts 287°
2026-05-03 23:03 32.19448 -107.24686 29977 ft 411 kts 287°
2026-05-03 23:03 32.21251 -107.31096 29950 ft 411 kts 287°
2026-05-03 23:04 32.23049 -107.37500 29968 ft 411 kts 287°
2026-05-03 23:04 32.24840 -107.43896 29990 ft 410 kts 286°
2026-05-03 23:05 32.26624 -107.50280 30026 ft 409 kts 286°
2026-05-03 23:05 32.28401 -107.56651 30061 ft 408 kts 286°
2026-05-03 23:06 32.30171 -107.63013 30076 ft 407 kts 286°
2026-05-03 23:06 32.31936 -107.69372 30074 ft 407 kts 286°
2026-05-03 23:07 32.33684 -107.75683 30076 ft 407 kts 286°
2026-05-03 23:07 32.35455 -107.82093 30086 ft 410 kts 286°
2026-05-03 23:07 32.36329 -107.85260 30229 ft 411 kts 286°
2026-05-03 23:08 32.37213 -107.88467 30480 ft 409 kts 286°
2026-05-03 23:08 32.38091 -107.91655 30753 ft 407 kts 285°
2026-05-03 23:08 32.38965 -107.94834 31229 ft 406 kts 287°
2026-05-03 23:09 32.40727 -108.01253 31504 ft 411 kts 287°
2026-05-03 23:09 32.41605 -108.04454 31882 ft 408 kts 287°
2026-05-03 23:09 32.42478 -108.07641 32008 ft 407 kts 287°
2026-05-03 23:10 32.44220 -108.14017 32040 ft 407 kts 287°
2026-05-03 23:10 32.45956 -108.20382 32062 ft 406 kts 287°
2026-05-03 23:11 32.47685 -108.26735 32063 ft 406 kts 287°
2026-05-03 23:11 32.49413 -108.33097 32038 ft 406 kts 287°
2026-05-03 23:12 32.51136 -108.39458 32018 ft 405 kts 287°
2026-05-03 23:12 32.52857 -108.45823 31985 ft 405 kts 287°
2026-05-03 23:13 32.54574 -108.52190 31970 ft 406 kts 287°
2026-05-03 23:13 32.56289 -108.58567 31957 ft 406 kts 287°
2026-05-03 23:14 32.58004 -108.64952 31967 ft 406 kts 287°
2026-05-03 23:14 32.59714 -108.71335 31943 ft 406 kts 287°
2026-05-03 23:15 32.61420 -108.77719 31931 ft 406 kts 287°
2026-05-03 23:15 32.63123 -108.84107 31901 ft 406 kts 287°
2026-05-03 23:16 32.64812 -108.90454 31880 ft 406 kts 286°
2026-05-03 23:16 32.66508 -108.96845 31872 ft 406 kts 287°
2026-05-03 23:17 32.68201 -109.03235 31868 ft 406 kts 286°
2026-05-03 23:17 32.69900 -109.09664 31861 ft 406 kts 286°
2026-05-03 23:18 32.71585 -109.16059 31860 ft 406 kts 286°
2026-05-03 23:18 32.73265 -109.22446 31855 ft 405 kts 286°
2026-05-03 23:19 32.74942 -109.28840 31872 ft 405 kts 286°
2026-05-03 23:19 32.76605 -109.35196 31893 ft 406 kts 286°
2026-05-03 23:20 32.78277 -109.41593 31910 ft 406 kts 286°
2026-05-03 23:20 32.79949 -109.48007 31933 ft 406 kts 286°
2026-05-03 23:21 32.81617 -109.54422 31953 ft 406 kts 286°
2026-05-03 23:21 32.83283 -109.60845 31951 ft 406 kts 286°
2026-05-03 23:22 32.85774 -109.70477 31953 ft 406 kts 286°
2026-05-03 23:22 32.87432 -109.76908 31945 ft 406 kts 286°
2026-05-03 23:23 32.89086 -109.83335 31926 ft 406 kts 286°
2026-05-03 23:23 32.90734 -109.89759 31910 ft 406 kts 286°
2026-05-03 23:24 32.92383 -109.96196 31885 ft 406 kts 286°
2026-05-03 23:24 32.94025 -110.02626 31866 ft 406 kts 285°
2026-05-03 23:25 32.95666 -110.09065 31855 ft 406 kts 285°
2026-05-03 23:25 32.97302 -110.15503 31850 ft 406 kts 285°
2026-05-03 23:26 32.98935 -110.21940 31841 ft 406 kts 285°
2026-05-03 23:26 33.00557 -110.28359 31860 ft 404 kts 285°
2026-05-03 23:27 33.02175 -110.34772 31846 ft 405 kts 285°
2026-05-03 23:27 33.03783 -110.41156 31843 ft 405 kts 285°
2026-05-03 23:28 33.05400 -110.47592 31839 ft 405 kts 285°
2026-05-03 23:28 33.07013 -110.54029 31828 ft 406 kts 285°
2026-05-03 23:29 33.08627 -110.60484 31833 ft 407 kts 285°
2026-05-03 23:29 33.10240 -110.66949 31817 ft 407 kts 285°
2026-05-03 23:30 33.11851 -110.73423 31813 ft 407 kts 285°
2026-05-03 23:30 33.13459 -110.79901 31822 ft 407 kts 285°
2026-05-03 23:31 33.15059 -110.86364 31815 ft 406 kts 285°
2026-05-03 23:31 33.16652 -110.92817 31821 ft 405 kts 285°
2026-05-03 23:32 33.18243 -110.99274 31821 ft 405 kts 285°
2026-05-03 23:32 33.19828 -111.05726 31800 ft 404 kts 285°
2026-05-03 23:33 33.21405 -111.12159 31803 ft 404 kts 285°
2026-05-03 23:33 33.22977 -111.18587 31807 ft 403 kts 284°
2026-05-03 23:34 33.24549 -111.25033 31811 ft 404 kts 284°
2026-05-03 23:34 33.26120 -111.31491 31808 ft 405 kts 284°
2026-05-03 23:35 33.27692 -111.37965 31816 ft 405 kts 284°
2026-05-03 23:35 33.29258 -111.44434 31826 ft 406 kts 284°
2026-05-03 23:36 33.30822 -111.50909 31836 ft 406 kts 284°
2026-05-03 23:36 33.32384 -111.57393 31842 ft 405 kts 284°
2026-05-03 23:37 33.33940 -111.63868 31843 ft 405 kts 284°
2026-05-03 23:37 33.35492 -111.70342 31840 ft 405 kts 284°
2026-05-03 23:38 33.37041 -111.76821 31822 ft 404 kts 284°
2026-05-03 23:38 33.38571 -111.83232 31812 ft 401 kts 282°
2026-05-03 23:39 33.40102 -111.89667 31784 ft 397 kts 282°
2026-05-03 23:39 33.41604 -111.95996 31787 ft 395 kts 282°
2026-05-03 23:40 33.43087 -112.02265 31789 ft 393 kts 282°
2026-05-03 23:40 33.44583 -112.08601 31789 ft 393 kts 282°
2026-05-03 23:41 33.46054 -112.14848 31789 ft 392 kts 282°
2026-05-03 23:41 33.47532 -112.21142 31793 ft 393 kts 282°
2026-05-03 23:42 33.49008 -112.27438 31789 ft 393 kts 282°
2026-05-03 23:42 33.50484 -112.33752 31788 ft 393 kts 282°
2026-05-03 23:43 33.51956 -112.40065 31787 ft 394 kts 282°
2026-05-03 23:43 33.53179 -112.45322 31785 ft 394 kts 282°
2026-05-03 23:44 33.54657 -112.51692 31776 ft 394 kts 282°
2026-05-03 23:44 33.56109 -112.57961 31795 ft 392 kts 282°
2026-05-03 23:45 33.57566 -112.64269 31820 ft 394 kts 282°
2026-05-03 23:45 33.59026 -112.70608 31811 ft 395 kts 282°
2026-05-03 23:46 33.60485 -112.76959 31805 ft 395 kts 282°
2026-05-03 23:46 33.61939 -112.83304 31805 ft 394 kts 282°
2026-05-03 23:47 33.63389 -112.89641 31803 ft 393 kts 282°
2026-05-03 23:47 33.64833 -112.95976 31793 ft 394 kts 281°
2026-05-03 23:48 33.66273 -113.02312 31790 ft 393 kts 281°
2026-05-03 23:48 33.67708 -113.08634 31798 ft 393 kts 281°
2026-05-03 23:49 33.69140 -113.14968 31794 ft 393 kts 281°
2026-05-03 23:49 33.70571 -113.21308 31819 ft 393 kts 281°
2026-05-03 23:50 33.71998 -113.27648 31877 ft 393 kts 281°
2026-05-03 23:50 33.73422 -113.33990 31920 ft 393 kts 281°
2026-05-03 23:51 33.74845 -113.40346 31961 ft 394 kts 281°
2026-05-03 23:51 33.76264 -113.46704 32025 ft 395 kts 281°
2026-05-03 23:52 33.77676 -113.53042 31986 ft 395 kts 281°
2026-05-03 23:52 33.79091 -113.59406 31978 ft 393 kts 281°
2026-05-03 23:53 33.80497 -113.65753 31954 ft 392 kts 281°
2026-05-03 23:53 33.81896 -113.72084 31925 ft 392 kts 281°
2026-05-03 23:54 33.83294 -113.78432 31860 ft 393 kts 281°
2026-05-03 23:54 33.84688 -113.84775 31797 ft 392 kts 281°
2026-05-03 23:55 33.86079 -113.91116 31768 ft 392 kts 281°
2026-05-03 23:55 33.87465 -113.97454 31766 ft 391 kts 280°
2026-05-03 23:56 33.88846 -114.03789 31755 ft 391 kts 280°
2026-05-03 23:56 33.90221 -114.10111 31751 ft 390 kts 280°
2026-05-03 23:57 33.91441 -114.16467 31754 ft 389 kts 278°
2026-05-03 23:57 33.92496 -114.22857 31747 ft 389 kts 277°
2026-05-03 23:58 33.93552 -114.29251 31744 ft 389 kts 277°
2026-05-03 23:58 33.94623 -114.35639 31744 ft 389 kts 277°
2026-05-03 23:59 33.95699 -114.42035 31735 ft 390 kts 277°
2026-05-03 23:59 33.96774 -114.48425 31734 ft 389 kts 277°
2026-05-04 00:00 33.97846 -114.54825 31733 ft 389 kts 277°
2026-05-04 00:00 33.98913 -114.61212 31733 ft 389 kts 277°
2026-05-04 00:01 33.99978 -114.67608 31735 ft 389 kts 277°
2026-05-04 00:01 34.01038 -114.74003 31733 ft 389 kts 277°
2026-05-04 00:02 34.02096 -114.80404 31736 ft 389 kts 277°
2026-05-04 00:02 34.03150 -114.86799 31735 ft 389 kts 277°
2026-05-04 00:03 34.04199 -114.93188 31737 ft 388 kts 277°
2026-05-04 00:03 34.05243 -114.99566 31748 ft 388 kts 277°
2026-05-04 00:04 34.06285 -115.05948 31735 ft 388 kts 277°
2026-05-04 00:04 34.07321 -115.12317 31749 ft 387 kts 277°
2026-05-04 00:05 34.08355 -115.18687 31744 ft 387 kts 277°
2026-05-04 00:05 34.09384 -115.25058 31753 ft 387 kts 277°
2026-05-04 00:06 34.10413 -115.31445 31746 ft 388 kts 277°
2026-05-04 00:06 34.11437 -115.37818 31744 ft 387 kts 277°
2026-05-04 00:07 34.12456 -115.44192 31745 ft 387 kts 277°
2026-05-04 00:07 34.13472 -115.50566 31754 ft 387 kts 277°
2026-05-04 00:08 34.14486 -115.56944 31748 ft 387 kts 276°
2026-05-04 00:08 34.15492 -115.63295 31758 ft 388 kts 276°
2026-05-04 00:09 34.16295 -115.69702 31752 ft 384 kts 268°
2026-05-04 00:09 34.15743 -115.76078 31764 ft 382 kts 262°
2026-05-04 00:10 34.15093 -115.82428 31790 ft 381 kts 262°
2026-05-04 00:10 34.14468 -115.88788 31810 ft 381 kts 262°
2026-05-04 00:11 34.13851 -115.95135 31825 ft 381 kts 262°
2026-05-04 00:11 34.13230 -116.01479 31843 ft 381 kts 262°
2026-05-04 00:12 34.12608 -116.07820 31853 ft 381 kts 262°
2026-05-04 00:12 34.11983 -116.14170 31860 ft 381 kts 262°
2026-05-04 00:13 34.11356 -116.20511 31849 ft 381 kts 262°
2026-05-04 00:13 34.10728 -116.26841 31842 ft 380 kts 262°
2026-05-04 00:14 34.10083 -116.33159 31840 ft 379 kts 262°
2026-05-04 00:14 34.09418 -116.39351 31810 ft 361 kts 262°
2026-05-04 00:15 34.08779 -116.45277 31801 ft 354 kts 262°
2026-05-04 00:15 34.08461 -116.48233 31469 ft 360 kts 262°
2026-05-04 00:15 34.08139 -116.51219 31004 ft 358 kts 262°
2026-05-04 00:16 34.07821 -116.54169 30526 ft 353 kts 262°
2026-05-04 00:16 34.07505 -116.57088 29982 ft 349 kts 262°
2026-05-04 00:16 34.07196 -116.59987 29315 ft 348 kts 262°
2026-05-04 00:16 34.06920 -116.62878 28661 ft 345 kts 263°
2026-05-04 00:17 34.06661 -116.65736 28107 ft 342 kts 263°
2026-05-04 00:17 34.06404 -116.68573 27588 ft 338 kts 263°
2026-05-04 00:17 34.06149 -116.71378 27068 ft 334 kts 262°
2026-05-04 00:17 34.05894 -116.74139 26577 ft 331 kts 262°
2026-05-04 00:18 34.05638 -116.76886 26078 ft 328 kts 262°
2026-05-04 00:18 34.05384 -116.79601 25604 ft 325 kts 262°
2026-05-04 00:18 34.05132 -116.82301 25119 ft 324 kts 262°
2026-05-04 00:18 34.04878 -116.84998 24632 ft 323 kts 262°
2026-05-04 00:19 34.04624 -116.87684 24141 ft 321 kts 262°
2026-05-04 00:19 34.04351 -116.90345 23693 ft 320 kts 260°
2026-05-04 00:19 34.04007 -116.92992 23227 ft 321 kts 259°
2026-05-04 00:19 34.03644 -116.95667 22745 ft 325 kts 259°
2026-05-04 00:20 34.03283 -116.98380 22307 ft 329 kts 259°
2026-05-04 00:20 34.02923 -117.01118 21846 ft 331 kts 259°
2026-05-04 00:20 34.02570 -117.03850 21412 ft 329 kts 259°
2026-05-04 00:20 34.02242 -117.06580 20961 ft 329 kts 260°
2026-05-04 00:21 34.01923 -117.09302 20527 ft 327 kts 260°
2026-05-04 00:21 34.01607 -117.12013 20087 ft 327 kts 260°
2026-05-04 00:21 34.01288 -117.14720 19655 ft 326 kts 259°
2026-05-04 00:21 34.00968 -117.17425 19223 ft 326 kts 259°
2026-05-04 00:22 34.00647 -117.20123 18768 ft 325 kts 259°
2026-05-04 00:22 34.00326 -117.22812 18331 ft 324 kts 259°
2026-05-04 00:22 34.00004 -117.25496 17823 ft 322 kts 260°
2026-05-04 00:22 33.99687 -117.28142 17388 ft 318 kts 259°
2026-05-04 00:23 33.99371 -117.30776 17042 ft 313 kts 259°
2026-05-04 00:23 33.99071 -117.33295 16992 ft 308 kts 259°
2026-05-04 00:23 33.98760 -117.35927 16198 ft 321 kts 259°
2026-05-04 00:23 33.98451 -117.38581 15657 ft 319 kts 259°
2026-05-04 00:24 33.98142 -117.41222 15236 ft 318 kts 259°
2026-05-04 00:24 33.97830 -117.43869 14783 ft 322 kts 259°
2026-05-04 00:24 33.97512 -117.46555 14367 ft 322 kts 259°
2026-05-04 00:24 33.97326 -117.49218 13887 ft 318 kts 270°
2026-05-04 00:25 33.97683 -117.51822 13489 ft 312 kts 278°
2026-05-04 00:25 33.98160 -117.54356 13088 ft 308 kts 278°
2026-05-04 00:25 33.98639 -117.56875 12708 ft 310 kts 278°
2026-05-04 00:25 33.99110 -117.59425 12319 ft 314 kts 278°
2026-05-04 00:26 33.99574 -117.62000 11915 ft 314 kts 278°
2026-05-04 00:26 34.00030 -117.64568 11518 ft 312 kts 278°
2026-05-04 00:26 34.00480 -117.67113 11134 ft 308 kts 277°
2026-05-04 00:26 34.00630 -117.69644 10738 ft 300 kts 261°
2026-05-04 00:27 34.00372 -117.72116 10387 ft 296 kts 259°
2026-05-04 00:27 34.00107 -117.74570 10021 ft 295 kts 259°
2026-05-04 00:27 33.99852 -117.76988 9937 ft 284 kts 260°
2026-05-04 00:27 33.99620 -117.79295 9895 ft 269 kts 260°
2026-05-04 00:28 33.99401 -117.81507 9549 ft 264 kts 260°
2026-05-04 00:28 33.99257 -117.82961 9251 ft 266 kts 260°
2026-05-04 00:28 33.99041 -117.85176 8938 ft 265 kts 260°
2026-05-04 00:28 33.98826 -117.87381 8620 ft 265 kts 260°
2026-05-04 00:29 33.98612 -117.89581 8293 ft 264 kts 260°
2026-05-04 00:29 33.98397 -117.91775 7979 ft 263 kts 260°
2026-05-04 00:29 33.98182 -117.93952 7687 ft 261 kts 260°
2026-05-04 00:29 33.97967 -117.96129 7343 ft 262 kts 260°
2026-05-04 00:30 33.97752 -117.98310 7013 ft 262 kts 261°
2026-05-04 00:30 33.97538 -118.00480 6743 ft 261 kts 260°
2026-05-04 00:30 33.97323 -118.02654 6481 ft 260 kts 260°
2026-05-04 00:30 33.97109 -118.04798 6189 ft 260 kts 261°
2026-05-04 00:31 33.96909 -118.06812 5919 ft 259 kts 260°
2026-05-04 00:31 33.96696 -118.08953 5664 ft 257 kts 261°
2026-05-04 00:31 33.96482 -118.11097 5408 ft 255 kts 261°
2026-05-04 00:31 33.96273 -118.13192 5307 ft 248 kts 261°
2026-05-04 00:32 33.96071 -118.15216 5222 ft 239 kts 261°
2026-05-04 00:32 33.95876 -118.17170 5112 ft 232 kts 262°
2026-05-04 00:32 33.95687 -118.19057 5069 ft 221 kts 262°
2026-05-04 00:32 33.95522 -118.20842 5011 ft 208 kts 262°
2026-05-04 00:33 33.95349 -118.22570 4551 ft 215 kts 262°
2026-05-04 00:33 33.94920 -118.26271 3528 ft 227 kts 260°
2026-05-04 00:33 33.94671 -118.28153 3479 ft 227 kts 260°
2026-05-04 00:34 33.94452 -118.30021 3325 ft 222 kts 261°
2026-05-04 00:34 33.94245 -118.31818 3304 ft 212 kts 260°
2026-05-04 00:34 33.94022 -118.33556 3153 ft 210 kts 259°
2026-05-04 00:34 33.93788 -118.35278 2987 ft 209 kts 261°
2026-05-04 00:35 33.93610 -118.37024 2844 ft 205 kts 262°
2026-05-04 00:35 33.93483 -118.38353 2942 ft 223 kts 262°
2026-05-04 00:35 33.93307 -118.40198 2983 ft 220 kts 262°
2026-05-04 00:35 33.93033 -118.42003 2983 ft 221 kts 248°
2026-05-04 00:36 33.92347 -118.43655 3127 ft 218 kts 241°
2026-05-04 00:36 33.91630 -118.45256 3449 ft 220 kts 242°
2026-05-04 00:36 33.90890 -118.46890 3371 ft 223 kts 242°
2026-05-04 00:36 33.90123 -118.48469 3436 ft 212 kts 231°
2026-05-04 00:37 33.88987 -118.49542 3846 ft 216 kts 205°
2026-05-04 00:37 33.87464 -118.49916 4262 ft 231 kts 180°
2026-05-04 00:37 33.85886 -118.49464 4656 ft 237 kts 155°
2026-05-04 00:37 33.84576 -118.48246 4983 ft 243 kts 132°
2026-05-04 00:38 33.83742 -118.46466 5004 ft 247 kts 108°
2026-05-04 00:38 33.83354 -118.44449 4987 ft 247 kts 101°
2026-05-04 00:38 33.83316 -118.42405 5007 ft 246 kts 78°
2026-05-04 00:38 33.83774 -118.40410 5006 ft 248 kts 72°
2026-05-04 00:39 33.84309 -118.38440 5004 ft 248 kts 71°
2026-05-04 00:39 33.84852 -118.36468 4993 ft 249 kts 71°
2026-05-04 00:39 33.85405 -118.34476 5011 ft 254 kts 71°
2026-05-04 00:39 33.85974 -118.32439 5012 ft 258 kts 71°
2026-05-04 00:40 33.86547 -118.30399 5002 ft 257 kts 71°
2026-05-04 00:40 33.87093 -118.28363 4989 ft 254 kts 78°
2026-05-04 00:40 33.87405 -118.26288 5005 ft 251 kts 81°
2026-05-04 00:40 33.87690 -118.24223 4999 ft 250 kts 81°
2026-05-04 00:41 33.87972 -118.22164 4976 ft 249 kts 81°
2026-05-04 00:41 33.88253 -118.20116 4989 ft 248 kts 81°
2026-05-04 00:41 33.88538 -118.18065 4984 ft 248 kts 81°
2026-05-04 00:41 33.88827 -118.16013 4988 ft 249 kts 81°
2026-05-04 00:42 33.89116 -118.13956 4989 ft 251 kts 81°
2026-05-04 00:42 33.89413 -118.11883 4983 ft 252 kts 78°
2026-05-04 00:42 33.90091 -118.09948 4984 ft 252 kts 55°
2026-05-04 00:42 33.91349 -118.08493 4981 ft 254 kts 31°
2026-05-04 00:43 33.92997 -118.07720 4882 ft 258 kts
2026-05-04 00:43 33.94789 -118.07741 4428 ft 261 kts 346°
2026-05-04 00:43 33.96357 -118.08796 3908 ft 260 kts 309°
2026-05-04 00:43 33.97052 -118.10670 3647 ft 242 kts 271°
2026-05-04 00:44 33.96754 -118.12560 3609 ft 224 kts 251°
2026-05-04 00:44 33.96345 -118.14347 3585 ft 220 kts 255°
2026-05-04 00:44 33.96027 -118.16157 3586 ft 222 kts 259°
2026-05-04 00:44 33.95812 -118.18026 3438 ft 229 kts 262°
2026-05-04 00:45 33.95618 -118.19946 3154 ft 229 kts 262°
2026-05-04 00:45 33.95430 -118.21798 2833 ft 217 kts 262°
2026-05-04 00:45 33.95247 -118.23576 2542 ft 213 kts 261°
2026-05-04 00:45 33.95068 -118.25304 2254 ft 202 kts 261°
2026-05-04 00:46 33.94901 -118.26929 1998 ft 189 kts 262°
2026-05-04 00:46 33.94742 -118.28468 1755 ft 177 kts 261°
2026-05-04 00:46 33.94592 -118.29907 1555 ft 170 kts 262°
2026-05-04 00:46 33.94445 -118.31292 1292 ft 166 kts 262°
2026-05-04 00:47 33.94314 -118.32630 1047 ft 156 kts 262°
2026-05-04 00:47 33.94181 -118.33910 821 ft 149 kts 262°
2026-05-04 00:47 33.94052 -118.35155 596 ft 152 kts 264°
2026-05-04 00:47 33.93926 -118.36396 416 ft 150 kts 267°
2026-05-04 00:48 33.93799 -118.37665 216 ft 152 kts 261°
2026-05-04 00:48 33.93671 -118.38886 112 ft 138 kts 259°
2026-05-04 00:48 33.93575 -118.39836 110 ft 87 kts 264°
2026-05-04 00:48 33.93532 -118.40315 110 ft 37 kts 268°
2026-05-04 00:49 33.93560 -118.40537 109 ft 10 kts 291°
2026-05-04 00:49 33.93588 -118.40625 106 ft 13 kts 289°
2026-05-04 00:49 33.93595 -118.40730 105 ft 13 kts 265°
2026-05-04 00:49 33.93603 -118.40832 105 ft 12 kts 290°
2026-05-04 00:50 33.93659 -118.40896 107 ft 11 kts 348°
2026-05-04 00:50 33.93720 -118.40905 106 ft 7 kts 353°
2026-05-04 00:50 33.93771 -118.40903 102 ft 8 kts 21°
2026-05-04 00:50 33.93795 -118.40840 101 ft 8 kts 83°
2026-05-04 00:51 33.93796 -118.40822 100 ft 0 kts 83°
2026-05-04 00:52 33.93798 -118.40806 101 ft 5 kts 84°
2026-05-04 00:52 33.93802 -118.40757 101 ft 6 kts 85°
2026-05-04 00:52 33.93807 -118.40700 101 ft 7 kts 83°
2026-05-04 00:52 33.93814 -118.40630 102 ft 10 kts 83°
2026-05-04 00:53 33.93823 -118.40540 102 ft 11 kts 83°
2026-05-04 00:53 33.93832 -118.40449 102 ft 11 kts 83°
2026-05-04 00:53 33.93841 -118.40363 103 ft 8 kts 83°
2026-05-04 00:53 33.93851 -118.40304 103 ft 7 kts 56°
2026-05-04 00:54 33.93907 -118.40293 99 ft 10 kts 354°
2026-05-04 00:54 33.93968 -118.40301 98 ft 9 kts 351°
2026-05-04 00:54 33.94033 -118.40314 96 ft 9 kts 352°
2026-05-04 00:54 33.94066 -118.40319 96 ft 0 kts 351°
2026-05-04 00:55 33.94066 -118.40320 96 ft 1 kts 351°
2026-05-04 00:55 33.94086 -118.40322 94 ft 4 kts
2026-05-04 00:55 33.94103 -118.40298 96 ft 4 kts 69°
2026-05-04 00:55 33.94108 -118.40270 94 ft 2 kts 82°
2026-05-04 00:56 33.94108 -118.40268 94 ft 0 kts 82°